FDX3709 KIND-KEWR

Flight info

Callsign FDX3709
Flight time N/A
Altitude 33000
Route MAREO5 BDOCK KLYNE Q29 DORET J584 SLT FQM3
Aircraft B77L/H-SDE1E2E3FGHIJ2J3J4J5M1RWXY/LB1D1

Departure

Time 2026-04-30 22:53
Airport Indianapolis International Airport (KIND)

Arrival

Time N/A
Airport Newark Liberty International Airport (KEWR)
Time Latitude Longitude Altitude Speed Heading
2026-04-30 22:11 39.71285 -86.28258 786 ft 0 kts 134°
2026-04-30 22:40 39.71295 -86.28271 785 ft 4 kts 134°
2026-04-30 22:41 39.71348 -86.28292 785 ft 4 kts 224°
2026-04-30 22:41 39.71362 -86.28273 785 ft 0 kts 224°
2026-04-30 22:45 39.71330 -86.28315 785 ft 7 kts 224°
2026-04-30 22:46 39.71256 -86.28408 785 ft 7 kts 224°
2026-04-30 22:47 39.71185 -86.28691 786 ft 11 kts 311°
2026-04-30 22:47 39.71123 -86.28840 786 ft 10 kts 224°
2026-04-30 22:48 39.70972 -86.29034 788 ft 22 kts 224°
2026-04-30 22:49 39.70643 -86.29447 786 ft 22 kts 215°
2026-04-30 22:49 39.70288 -86.29806 786 ft 22 kts 224°
2026-04-30 22:50 39.69938 -86.30306 786 ft 14 kts 292°
2026-04-30 22:51 39.69999 -86.30395 787 ft 3 kts 316°
2026-04-30 22:51 39.70064 -86.30389 786 ft 7 kts 39°
2026-04-30 22:52 39.70070 -86.30381 789 ft 0 kts 44°
2026-04-30 22:52 39.70218 -86.30192 785 ft 61 kts 44°
2026-04-30 22:53 39.71493 -86.28570 794 ft 187 kts 44°
2026-04-30 22:53 39.73398 -86.26187 2067 ft 190 kts 40°
2026-04-30 22:53 39.74389 -86.24980 2514 ft 202 kts 41°
2026-04-30 22:54 39.76068 -86.21835 3257 ft 229 kts 82°
2026-04-30 22:55 39.76484 -86.15201 4525 ft 266 kts 85°
2026-04-30 22:55 39.76914 -86.10295 5732 ft 282 kts 78°
2026-04-30 22:56 39.77666 -86.05232 7141 ft 289 kts 77°
2026-04-30 22:56 39.78794 -85.97411 9195 ft 299 kts 77°
2026-04-30 22:57 39.79512 -85.92016 10414 ft 311 kts 76°
2026-04-30 22:57 39.80318 -85.86049 10772 ft 357 kts 77°
2026-04-30 22:58 39.81214 -85.79332 11486 ft 391 kts 77°
2026-04-30 22:59 39.82624 -85.68588 13731 ft 413 kts 76°
2026-04-30 22:59 39.84099 -85.57297 15794 ft 431 kts 77°